TimeCST,TemperatureF,Dew PointF,Humidity,Sea Level PressureIn,VisibilityMPH,Wind Direction,Wind SpeedMPH,Gust SpeedMPH,PrecipitationIn,Events,Conditions,WindDirDegrees,DateUTC
12:15 AM,35.6,32.0,87,30.19,10.0,Calm,Calm,-,N/A,,Clear,0,2012-11-25 06:15:00
12:35 AM,39.2,32.0,75,30.19,10.0,Calm,Calm,-,N/A,,Clear,0,2012-11-25 06:35:00
12:55 AM,37.4,32.0,81,30.18,10.0,Calm,Calm,-,N/A,,Clear,0,2012-11-25 06:55:00
1:15 AM,35.6,32.0,87,30.17,10.0,Calm,Calm,-,N/A,,Clear,0,2012-11-25 07:15:00
1:35 AM,35.6,32.0,87,30.17,10.0,Calm,Calm,-,N/A,,Clear,0,2012-11-25 07:35:00
1:55 AM,33.8,32.0,93,30.16,10.0,Calm,Calm,-,N/A,,Clear,0,2012-11-25 07:55:00
2:15 AM,35.6,32.0,87,30.16,10.0,Calm,Calm,-,N/A,,Clear,0,2012-11-25 08:15:00
2:55 AM,35.6,32.0,87,30.15,10.0,Calm,Calm,-,N/A,,Clear,0,2012-11-25 08:55:00
3:15 AM,35.6,32.0,87,30.15,10.0,Calm,Calm,-,N/A,,Clear,0,2012-11-25 09:15:00
3:55 AM,35.6,32.0,87,30.14,10.0,Calm,Calm,-,N/A,,Clear,0,2012-11-25 09:55:00
4:15 AM,32.0,32.0,100,30.14,10.0,Calm,Calm,-,N/A,,Clear,0,2012-11-25 10:15:00
4:35 AM,33.8,32.0,93,30.14,10.0,Calm,Calm,-,N/A,,Clear,0,2012-11-25 10:35:00
4:55 AM,35.6,32.0,87,30.14,10.0,Calm,Calm,-,N/A,,Clear,0,2012-11-25 10:55:00
5:15 AM,35.6,32.0,87,30.14,10.0,Calm,Calm,-,N/A,,Clear,0,2012-11-25 11:15:00
5:35 AM,35.6,32.0,87,30.13,10.0,Calm,Calm,-,N/A,,Clear,0,2012-11-25 11:35:00
5:55 AM,32.0,30.2,93,30.13,10.0,Calm,Calm,-,N/A,,Clear,0,2012-11-25 11:55:00
6:35 AM,33.8,32.0,93,30.14,10.0,Calm,Calm,-,N/A,,Clear,0,2012-11-25 12:35:00
6:55 AM,35.6,32.0,87,30.14,10.0,Calm,Calm,-,N/A,,Clear,0,2012-11-25 12:55:00
7:15 AM,37.4,33.8,87,30.14,10.0,Calm,Calm,-,N/A,,Clear,0,2012-11-25 13:15:00
7:35 AM,37.4,35.6,93,30.14,10.0,Calm,Calm,-,N/A,,Clear,0,2012-11-25 13:35:00
7:55 AM,42.8,37.4,81,30.15,10.0,Calm,Calm,-,N/A,,Clear,0,2012-11-25 13:55:00
8:35 AM,48.2,39.2,71,30.15,10.0,Calm,Calm,-,N/A,,Clear,0,2012-11-25 14:35:00
8:55 AM,51.8,41.0,67,30.15,10.0,South,3.5,-,N/A,,Clear,180,2012-11-25 14:55:00
9:15 AM,53.6,42.8,67,30.16,10.0,South,6.9,-,N/A,,Clear,190,2012-11-25 15:15:00
9:35 AM,55.4,42.8,63,30.16,10.0,South,9.2,-,N/A,,Clear,180,2012-11-25 15:35:00
9:55 AM,57.2,41.0,55,30.16,10.0,SSW,9.2,-,N/A,,Clear,200,2012-11-25 15:55:00
10:15 AM,60.8,39.2,45,30.15,10.0,South,9.2,-,N/A,,Clear,190,2012-11-25 16:15:00
10:35 AM,60.8,39.2,45,30.14,10.0,South,9.2,-,N/A,,Clear,180,2012-11-25 16:35:00
10:55 AM,62.6,41.0,45,30.13,10.0,SSW,8.1,-,N/A,,Clear,210,2012-11-25 16:55:00
11:15 AM,64.4,41.0,42,30.12,10.0,South,5.8,-,N/A,,Clear,190,2012-11-25 17:15:00
11:35 AM,66.2,39.2,37,30.10,10.0,South,5.8,16.1,N/A,,Clear,190,2012-11-25 17:35:00
11:55 AM,68.0,42.8,40,30.09,10.0,South,8.1,-,N/A,,Clear,190,2012-11-25 17:55:00
12:15 PM,68.0,42.8,40,30.07,10.0,SSE,9.2,-,N/A,,Clear,160,2012-11-25 18:15:00
12:35 PM,69.8,42.8,38,30.06,10.0,South,8.1,-,N/A,,Clear,170,2012-11-25 18:35:00
12:55 PM,71.6,42.8,35,30.04,10.0,SSW,5.8,-,N/A,,Clear,200,2012-11-25 18:55:00
1:15 PM,71.6,44.6,38,30.03,10.0,SSE,6.9,-,N/A,,Clear,150,2012-11-25 19:15:00
1:35 PM,71.6,46.4,41,30.02,10.0,South,8.1,-,N/A,,Clear,170,2012-11-25 19:35:00
1:55 PM,71.6,46.4,41,30.01,10.0,South,11.5,-,N/A,,Clear,190,2012-11-25 19:55:00
2:15 PM,73.4,48.2,41,30.01,10.0,South,3.5,-,N/A,,Clear,180,2012-11-25 20:15:00
2:35 PM,73.4,48.2,41,30.00,10.0,South,12.7,18.4,N/A,,Clear,180,2012-11-25 20:35:00
2:55 PM,73.4,50.0,44,30.00,10.0,South,11.5,20.7,N/A,,Clear,190,2012-11-25 20:55:00
3:15 PM,73.4,50.0,44,30.00,10.0,South,12.7,-,N/A,,Clear,190,2012-11-25 21:15:00
3:35 PM,73.4,50.0,44,29.99,10.0,South,10.4,-,N/A,,Clear,180,2012-11-25 21:35:00
3:55 PM,71.6,50.0,46,29.99,10.0,South,5.8,-,N/A,,Clear,180,2012-11-25 21:55:00
4:15 PM,71.6,51.8,50,29.99,10.0,South,3.5,-,N/A,,Clear,180,2012-11-25 22:15:00
4:35 PM,69.8,51.8,53,29.99,10.0,Calm,Calm,-,N/A,,Clear,0,2012-11-25 22:35:00
4:55 PM,69.8,51.8,53,29.98,10.0,South,6.9,-,N/A,,Clear,170,2012-11-25 22:55:00
5:15 PM,68.0,51.8,56,29.98,10.0,Calm,Calm,-,N/A,,Clear,0,2012-11-25 23:15:00
5:35 PM,66.2,51.8,60,29.98,10.0,Calm,Calm,-,N/A,,Clear,0,2012-11-25 23:35:00
5:55 PM,66.2,51.8,60,29.98,10.0,Calm,Calm,-,N/A,,Clear,0,2012-11-25 23:55:00
6:35 PM,64.4,51.8,64,29.98,10.0,SSE,4.6,-,N/A,,Clear,150,2012-11-26 00:35:00
6:55 PM,64.4,51.8,64,29.99,10.0,SSE,4.6,-,N/A,,Clear,150,2012-11-26 00:55:00
7:15 PM,64.4,53.6,68,29.99,10.0,Calm,Calm,-,N/A,,Clear,0,2012-11-26 01:15:00
7:35 PM,64.4,53.6,68,29.98,10.0,Calm,Calm,-,N/A,,Clear,0,2012-11-26 01:35:00
7:55 PM,64.4,55.4,73,29.99,10.0,SSE,8.1,-,N/A,,Clear,160,2012-11-26 01:55:00
8:15 PM,64.4,55.4,73,29.99,10.0,South,10.4,-,N/A,,Clear,170,2012-11-26 02:15:00
8:35 PM,62.6,55.4,77,29.99,10.0,SSE,10.4,-,N/A,,Clear,160,2012-11-26 02:35:00
8:55 PM,62.6,57.2,82,30.00,10.0,South,8.1,-,N/A,,Clear,170,2012-11-26 02:55:00
9:15 PM,62.6,57.2,82,30.00,10.0,South,6.9,-,N/A,,Clear,170,2012-11-26 03:15:00
9:35 PM,62.6,57.2,82,30.00,10.0,SSE,8.1,-,N/A,,Clear,160,2012-11-26 03:35:00
9:55 PM,62.6,57.2,82,30.01,10.0,SSE,9.2,-,N/A,,Clear,160,2012-11-26 03:55:00
10:15 PM,62.6,57.2,82,30.01,10.0,South,10.4,-,N/A,,Clear,170,2012-11-26 04:15:00
10:35 PM,62.6,57.2,82,30.00,10.0,South,6.9,-,N/A,,Clear,170,2012-11-26 04:35:00
11:15 PM,62.6,57.2,82,30.01,10.0,South,8.1,-,N/A,,Mostly Cloudy,170,2012-11-26 05:15:00
11:35 PM,62.6,57.2,82,30.01,10.0,South,4.6,-,N/A,,Mostly Cloudy,170,2012-11-26 05:35:00
11:55 PM,62.6,57.2,82,30.00,10.0,South,6.9,-,N/A,,Overcast,170,2012-11-26 05:55:00